SCP
2 1 1 1 1 0 0 0 0 0 0 0 0 0 0 0 0 0 0 0 0 0 0 0 0 0 0 0 0 0 0 0 0 0 0 0 -0 -0
2 2 2 2 1 0 0 0 0 0 0 0 0 0 0 0 0 0 0 0 0 0 0 0 0 0 0 0 0 0 0 0 0 0 0 0 0 0
2 2 2 3 2 1 0 0 0 0 0 0 0 0 0 0 0 0 0 0 0 0 0 0 0 0 0 0 0 0 0 0 0 0 -0 -0 -0 -0
2 3 3 3 2 1 0 0 0 0 0 0 0 0 0 0 0 0 0 0 0 0 -0 0 0 0 0 0 0 0 0 0 0 0 0 -0 -0 -0
1 2 3 1 1 1 0 0 0 0 0 0 0 0 0 0 0 0 0 0 0 0 0 0 0 0 0 0 0 0 0 0 0 0 0 -0 -0 -0
2 2 2 1 1 1 0 0 0 0 0 0 0 0 0 0 0 0 0 0 0 0 0 -0 -0 0 0 0 0 0 0 -0 0 -0 -0 -0 -0 -0
2 2 2 1 0 0 0 0 0 0 0 0 0 0 0 0 0 0 0 0 0 0 -0 -0 -0 0 -0 -0 -0 -0 -0 -0 -0 0 -0 -0 0 -0
1 2 1 0 0 0 0 0 0 0 0 0 0 0 0 0 0 0 0 0 0 0 0 0 0 0 -0 -0 -0 0 0 -0 -0 -0 -0 -0 -0 0
0 0 0 0 0 0 0 0 0 0 0 0 0 0 0 -0 0 0 0 0 0 0 0 -0 0 0 0 -0 -0 -0 -0 -0 -0 -0 -0 -0 -0 0
0 0 0 0 0 0 0 0 0 0 0 0 0 0 -0 -0 0 0 0 0 0 0 0 0 0 0 0 -0 -0 -0 -0 -0 -0 -0 -0 -0 -0 -0
0 0 0 0 0 0 0 0 0 0 0 0 0 0 -0 -0 0 0 0 0 0 0 0 0 0 0 0 0 0 0 -0 -0 -0 -0 -0 -0 -0 -0
0 0 0 0 0 0 0 0 0 0 0 0 0 0 -0 -0 0 0 0 0 0 0 0 0 0 0 0 0 0 0 0 0 -0 0 -0 -0 -0 0
0 0 0 0 0 0 0 0 0 0 0 0 0 0 -0 -0 0 0 0 0 0 0 0 0 0 0 0 0 0 0 0 0 0 0 -0 -0 -0 -0
0 0 0 0 0 0 0 0 0 0 0 0 0 0 -0 0 0 0 0 0 0 0 0 0 0 0 0 0 0 0 0 0 0 0 0 0 0 0
0 0 0 0 0 0 -0 0 0 0 0 0 0 0 0 0 0 0 0 -0 -0 0 0 0 0 0 0 0 0 0 0 0 0 0 0 0 0 0
0 0 0 0 0 -0 0 0 0 0 0 0 0 -0 -0 -0 0 -0 0 -0 -0 0 -0 -0 0 0 0 0 0 -0 -0 0 0 0 0 0 0 0
0 0 0 0 0 0 0 0 0 0 0 -0 -0 -0 -0 -0 -0 -0 0 0 0 -0 -0 -0 -0 -0 -0 0 0 0 -0 -0 0 0 0 0 0 0
0 0 0 0 0 0 0 0 0 0 0 -0 -0 -0 -0 -0 -0 -0 -0 0 -0 0 0 -0 -0 -0 0 0 -0 -0 0 -0 -0 0 0 -0 0 0
0 0 0 0 0 0 0 0 0 0 0 0 0 -0 -0 -0 0 0 -0 0 0 0 0 0 0 0 0 0 0 -0 -0 0 -0 0 -0 -0 -0 -0
0 0 0 0 0 0 0 0 0 0 0 0 0 -0 -0 -0 -0 0 0 -0 0 0 0 0 0 -0 -0 0 -0 -0 -0 -0 0 0 0 0 0 0
0 0 0 0 0 0 0 0 0 0 0 0 0 0 0 0 0 0 -0 -0 0 0 0 0 0 0 -0 -0 0 -0 -0 0 -0 0 -0 -0 -0 0
0 0 0 0 0 0 0 0 0 0 0 0 0 0 0 0 0 0 0 0 -0 -0 0 0 0 0 0 0 -0 -0 -0 -0 -0 0 0 -0 -0 -0
0 0 0 0 0 0 0 0 0 0 0 0 0 0 -0 -0 -0 0 0 -0 -0 -0 -0 -0 -0 -0 0 0 0 0 0 -0 -0 -0 -0 0 0 0
Wind_Speed_500mb
54 51 51 48 42 51 50 51 58 57 56 48 39 45 41 33 22 16 4 11 25 40 33 36 39 42 46 42 44 46 43 40 40 34 31 26 18 17
55 51 47 42 52 52 49 49 66 59 50 57 53 44 44 31 25 14 4 9 23 39 37 38 45 43 46 43 46 50 42 43 38 40 33 27 26 24
59 54 53 41 49 43 45 49 63 60 56 46 47 40 40 29 30 22 9 7 17 28 42 42 47 45 44 44 44 51 51 47 46 49 35 24 25 21
65 62 56 50 42 46 46 50 59 59 59 47 53 52 39 30 23 22 7 2 7 20 42 47 47 51 45 45 45 50 54 52 48 45 44 35 27 21
67 58 54 53 41 44 45 48 65 59 50 61 61 53 46 32 32 34 24 14 7 15 35 41 45 47 53 48 47 50 51 52 50 47 41 39 36 32
59 55 51 48 43 51 49 55 58 59 55 60 56 51 42 36 29 36 26 17 14 15 27 39 42 45 49 51 50 48 48 48 51 53 46 40 36 32
60 51 47 45 43 51 52 60 64 65 66 61 56 50 50 47 37 34 27 20 12 15 16 37 36 37 47 58 57 52 49 45 46 49 51 50 45 38
59 48 36 39 44 50 60 60 68 75 68 58 52 51 46 37 32 30 27 26 28 9 8 23 27 36 45 58 60 56 53 50 45 45 50 55 54 48
31 29 34 44 49 54 52 64 67 62 48 47 51 58 53 46 40 39 41 30 23 12 13 25 20 33 35 58 55 62 60 54 46 45 45 51 50 47
38 39 47 50 54 54 47 60 58 57 50 49 47 53 55 42 30 40 46 45 34 26 12 19 14 20 35 61 57 58 67 61 47 48 53 50 47 42
40 46 35 47 62 65 68 70 74 65 47 38 48 55 58 52 46 46 41 32 29 26 21 16 19 27 37 49 58 54 63 57 50 54 57 55 53 49
36 30 40 47 62 66 86 90 83 68 59 61 65 62 43 27 27 31 35 36 34 36 32 33 13 8 31 36 51 61 59 53 49 53 63 59 63 68
28 42 49 63 84 79 84 73 67 74 66 76 73 54 48 47 46 44 37 33 33 37 25 31 36 30 32 27 35 58 63 53 55 56 62 71 79 80
24 38 49 56 86 76 71 67 73 74 84 83 64 51 52 49 39 36 28 34 32 31 28 34 42 32 36 39 28 39 62 57 57 59 62 69 76 82
31 61 80 77 62 53 66 80 83 88 85 70 61 50 56 58 69 65 62 63 61 35 34 39 37 35 33 33 44 53 45 57 62 64 63 64 65 66
69 90 78 73 72 89 82 79 73 71 71 72 73 73 65 61 55 54 47 41 50 53 56 27 27 31 34 35 34 52 57 58 65 65 67 69 75 74
102 102 98 95 97 81 66 61 65 67 65 76 72 68 56 42 43 44 31 32 41 44 48 57 36 26 30 32 32 39 54 62 61 68 70 77 77 73
108 118 118 102 84 69 62 68 69 62 69 61 52 55 46 47 53 42 41 39 41 38 32 45 41 28 29 41 44 32 37 54 59 58 68 81 86 80
104 109 100 76 65 62 63 70 71 57 51 56 59 52 54 53 48 42 49 45 42 46 55 44 38 44 46 37 36 38 39 24 40 55 58 68 81 84
97 85 78 71 69 65 69 71 61 59 56 58 52 53 52 43 45 49 48 44 40 42 46 42 34 54 64 62 45 27 23 29 36 44 47 54 68 74
88 75 70 71 65 61 67 65 56 57 56 60 57 47 45 44 51 54 53 47 45 45 48 43 32 36 55 65 73 70 65 44 30 37 45 58 68 71
89 70 59 62 63 58 64 52 54 53 58 50 52 43 43 46 49 46 48 42 43 47 52 48 42 30 25 42 51 59 68 65 66 67 68 71 71 74
67 56 53 60 63 59 47 56 57 54 50 49 41 39 49 49 43 48 41 38 44 37 42 41 34 33 27 17 30 32 34 43 54 55 60 60 64 67
Wind_Direction_500mb
228 227 227 229 229 241 251 232 207 198 211 214 208 203 206 224 236 252 19 40 25 25 29 22 22 18 16 11 7 5 3 2 358 358 1 359 351 358
227 229 234 233 234 245 239 222 212 221 217 218 212 207 208 205 210 202 127 60 37 37 25 22 23 21 22 15 17 16 13 12 9 6 356 354 2 360
225 228 234 228 230 239 239 224 213 221 222 215 203 195 193 181 183 191 133 78 42 37 19 25 24 25 19 19 15 19 20 18 15 16 18 15 10 5
225 223 222 226 236 242 234 238 222 219 221 198 184 179 177 188 180 146 173 153 77 38 22 20 16 28 18 17 15 19 20 18 17 25 26 21 17 14
227 223 227 227 230 237 229 230 204 209 203 192 176 172 173 185 158 146 125 150 193 31 20 24 17 19 17 18 17 20 21 20 24 23 23 25 23 26
221 222 224 225 228 228 227 214 221 208 195 182 168 161 165 155 131 132 131 145 135 47 33 22 16 11 11 19 19 20 22 25 30 31 27 22 20 17
223 224 229 233 233 228 223 213 207 190 178 169 157 153 151 148 137 138 146 142 124 84 40 34 24 23 24 21 18 20 20 21 26 28 29 26 25 19
219 216 215 227 226 222 211 219 201 183 176 169 159 155 147 142 151 152 169 126 127 104 26 61 29 33 27 23 22 21 19 21 19 25 20 15 12 19
219 227 235 220 219 216 217 201 184 180 173 161 154 146 143 146 152 154 130 128 99 84 35 57 31 30 28 28 26 22 24 24 26 28 24 12 8 19
223 237 239 215 219 214 206 178 152 141 156 151 149 147 148 148 155 124 107 99 92 107 63 83 81 52 40 33 26 23 22 27 35 35 27 22 24 25
226 227 231 214 212 202 181 163 150 148 146 133 143 139 126 125 123 116 114 115 108 82 76 109 103 73 47 36 32 27 24 29 37 40 39 38 38 43
208 209 220 217 203 193 177 158 148 140 147 142 133 127 122 129 127 135 125 118 111 87 83 86 116 53 75 35 35 37 32 39 43 44 41 49 54 52
184 192 188 177 168 179 166 160 151 141 139 134 127 120 129 131 127 131 133 117 108 95 95 102 83 75 68 49 37 33 38 47 52 52 49 52 53 55
180 167 164 178 168 165 164 152 142 144 141 135 124 134 134 130 129 125 119 111 100 90 76 112 81 76 69 68 60 35 41 48 56 61 63 61 56 56
170 163 162 164 163 147 140 142 139 137 134 132 134 134 127 118 107 103 97 88 80 101 102 108 88 83 78 68 61 51 50 51 60 59 59 56 55 55
152 144 137 132 137 137 134 132 130 134 136 134 130 118 111 103 103 107 84 95 84 79 73 114 98 85 83 78 60 56 51 58 60 59 61 62 60 59
139 133 122 129 138 134 136 141 141 144 136 129 124 120 116 120 126 113 97 94 85 82 81 76 80 83 90 86 86 66 52 55 58 59 60 58 57 55
130 126 131 142 140 142 146 144 147 140 131 124 125 131 132 127 116 115 106 109 94 80 79 81 62 75 103 88 78 83 53 50 54 58 60 63 61 58
128 132 137 141 144 143 139 140 139 134 141 137 134 128 129 126 125 122 109 106 104 98 94 94 70 71 84 90 86 79 83 77 45 54 57 62 64 60
130 135 145 144 141 140 142 140 137 138 138 136 133 135 132 121 120 132 120 110 101 106 101 98 80 67 73 82 88 84 77 76 73 61 60 67 70 68
134 131 136 137 138 137 141 138 137 137 140 137 131 134 132 132 127 122 116 111 108 103 101 98 99 84 71 81 80 76 70 70 76 70 73 82 77 72
133 129 133 145 136 142 137 136 139 138 136 134 134 135 129 132 125 118 121 115 111 107 98 94 94 111 85 75 86 82 76 73 73 75 75 72 73 73
137 135 140 141 139 140 143 147 143 137 138 136 136 139 129 125 128 128 128 110 117 115 109 99 97 94 95 84 81 86 77 73 64 65 68 67 65 65
Wind_Speed_850mb
54 51 51 48 42 51 50 51 58 57 56 48 39 45 41 33 22 16 4 11 25 40 33 36 39 42 46 42 44 46 43 40 40 34 31 26 18 17
55 51 47 42 52 52 49 49 66 59 50 57 53 44 44 31 25 14 4 9 23 39 37 38 45 43 46 43 46 50 42 43 38 40 33 27 26 24
59 54 53 41 49 43 45 49 63 60 56 46 47 40 40 29 30 22 9 7 17 28 42 42 47 45 44 44 44 51 51 47 46 49 35 24 25 21
65 62 56 50 42 46 46 50 59 59 59 47 53 52 39 30 23 22 7 2 7 20 42 47 47 51 45 45 45 50 54 52 48 45 44 35 27 21
67 58 54 53 41 44 45 48 65 59 50 61 61 53 46 32 32 34 24 14 7 15 35 41 45 47 53 48 47 50 51 52 50 47 41 39 36 32
59 55 51 48 43 51 49 55 58 59 55 60 56 51 42 36 29 36 26 17 14 15 27 39 42 45 49 51 50 48 48 48 51 53 46 40 36 32
60 51 47 45 43 51 52 60 64 65 66 61 56 50 50 47 37 34 27 20 12 15 16 37 36 37 47 58 57 52 49 45 46 49 51 50 45 38
59 48 36 39 44 50 60 60 68 75 68 58 52 51 46 37 32 30 27 26 28 9 8 23 27 36 45 58 60 56 53 50 45 45 50 55 54 48
31 29 34 44 49 54 52 64 67 62 48 47 51 58 53 46 40 39 41 30 23 12 13 25 20 33 35 58 55 62 60 54 46 45 45 51 50 47
38 39 47 50 54 54 47 60 58 57 50 49 47 53 55 42 30 40 46 45 34 26 12 19 14 20 35 61 57 58 67 61 47 48 53 50 47 42
40 46 35 47 62 65 68 70 74 65 47 38 48 55 58 52 46 46 41 32 29 26 21 16 19 27 37 49 58 54 63 57 50 54 57 55 53 49
36 30 40 47 62 66 86 90 83 68 59 61 65 62 43 27 27 31 35 36 34 36 32 33 13 8 31 36 51 61 59 53 49 53 63 59 63 68
28 42 49 63 84 79 84 73 67 74 66 76 73 54 48 47 46 44 37 33 33 37 25 31 36 30 32 27 35 58 63 53 55 56 62 71 79 80
24 38 49 56 86 76 71 67 73 74 84 83 64 51 52 49 39 36 28 34 32 31 28 34 42 32 36 39 28 39 62 57 57 59 62 69 76 82
31 61 80 77 62 53 66 80 83 88 85 70 61 50 56 58 69 65 62 63 61 35 34 39 37 35 33 33 44 53 45 57 62 64 63 64 65 66
69 90 78 73 72 89 82 79 73 71 71 72 73 73 65 61 55 54 47 41 50 53 56 27 27 31 34 35 34 52 57 58 65 65 67 69 75 74
102 102 98 95 97 81 66 61 65 67 65 76 72 68 56 42 43 44 31 32 41 44 48 57 36 26 30 32 32 39 54 62 61 68 70 77 77 73
108 118 118 102 84 69 62 68 69 62 69 61 52 55 46 47 53 42 41 39 41 38 32 45 41 28 29 41 44 32 37 54 59 58 68 81 86 80
104 109 100 76 65 62 63 70 71 57 51 56 59 52 54 53 48 42 49 45 42 46 55 44 38 44 46 37 36 38 39 24 40 55 58 68 81 84
97 85 78 71 69 65 69 71 61 59 56 58 52 53 52 43 45 49 48 44 40 42 46 42 34 54 64 62 45 27 23 29 36 44 47 54 68 74
88 75 70 71 65 61 67 65 56 57 56 60 57 47 45 44 51 54 53 47 45 45 48 43 32 36 55 65 73 70 65 44 30 37 45 58 68 71
89 70 59 62 63 58 64 52 54 53 58 50 52 43 43 46 49 46 48 42 43 47 52 48 42 30 25 42 51 59 68 65 66 67 68 71 71 74
67 56 53 60 63 59 47 56 57 54 50 49 41 39 49 49 43 48 41 38 44 37 42 41 34 33 27 17 30 32 34 43 54 55 60 60 64 67
Wind_Direction_850mb
228 227 227 229 229 241 251 232 207 198 211 214 208 203 206 224 236 252 19 40 25 25 29 22 22 18 16 11 7 5 3 2 358 358 1 359 351 358
227 229 234 233 234 245 239 222 212 221 217 218 212 207 208 205 210 202 127 60 37 37 25 22 23 21 22 15 17 16 13 12 9 6 356 354 2 360
225 228 234 228 230 239 239 224 213 221 222 215 203 195 193 181 183 191 133 78 42 37 19 25 24 25 19 19 15 19 20 18 15 16 18 15 10 5
225 223 222 226 236 242 234 238 222 219 221 198 184 179 177 188 180 146 173 153 77 38 22 20 16 28 18 17 15 19 20 18 17 25 26 21 17 14
227 223 227 227 230 237 229 230 204 209 203 192 176 172 173 185 158 146 125 150 193 31 20 24 17 19 17 18 17 20 21 20 24 23 23 25 23 26
221 222 224 225 228 228 227 214 221 208 195 182 168 161 165 155 131 132 131 145 135 47 33 22 16 11 11 19 19 20 22 25 30 31 27 22 20 17
223 224 229 233 233 228 223 213 207 190 178 169 157 153 151 148 137 138 146 142 124 84 40 34 24 23 24 21 18 20 20 21 26 28 29 26 25 19
219 216 215 227 226 222 211 219 201 183 176 169 159 155 147 142 151 152 169 126 127 104 26 61 29 33 27 23 22 21 19 21 19 25 20 15 12 19
219 227 235 220 219 216 217 201 184 180 173 161 154 146 143 146 152 154 130 128 99 84 35 57 31 30 28 28 26 22 24 24 26 28 24 12 8 19
223 237 239 215 219 214 206 178 152 141 156 151 149 147 148 148 155 124 107 99 92 107 63 83 81 52 40 33 26 23 22 27 35 35 27 22 24 25
226 227 231 214 212 202 181 163 150 148 146 133 143 139 126 125 123 116 114 115 108 82 76 109 103 73 47 36 32 27 24 29 37 40 39 38 38 43
208 209 220 217 203 193 177 158 148 140 147 142 133 127 122 129 127 135 125 118 111 87 83 86 116 53 75 35 35 37 32 39 43 44 41 49 54 52
184 192 188 177 168 179 166 160 151 141 139 134 127 120 129 131 127 131 133 117 108 95 95 102 83 75 68 49 37 33 38 47 52 52 49 52 53 55
180 167 164 178 168 165 164 152 142 144 141 135 124 134 134 130 129 125 119 111 100 90 76 112 81 76 69 68 60 35 41 48 56 61 63 61 56 56
170 163 162 164 163 147 140 142 139 137 134 132 134 134 127 118 107 103 97 88 80 101 102 108 88 83 78 68 61 51 50 51 60 59 59 56 55 55
152 144 137 132 137 137 134 132 130 134 136 134 130 118 111 103 103 107 84 95 84 79 73 114 98 85 83 78 60 56 51 58 60 59 61 62 60 59
139 133 122 129 138 134 136 141 141 144 136 129 124 120 116 120 126 113 97 94 85 82 81 76 80 83 90 86 86 66 52 55 58 59 60 58 57 55
130 126 131 142 140 142 146 144 147 140 131 124 125 131 132 127 116 115 106 109 94 80 79 81 62 75 103 88 78 83 53 50 54 58 60 63 61 58
128 132 137 141 144 143 139 140 139 134 141 137 134 128 129 126 125 122 109 106 104 98 94 94 70 71 84 90 86 79 83 77 45 54 57 62 64 60
130 135 145 144 141 140 142 140 137 138 138 136 133 135 132 121 120 132 120 110 101 106 101 98 80 67 73 82 88 84 77 76 73 61 60 67 70 68
134 131 136 137 138 137 141 138 137 137 140 137 131 134 132 132 127 122 116 111 108 103 101 98 99 84 71 81 80 76 70 70 76 70 73 82 77 72
133 129 133 145 136 142 137 136 139 138 136 134 134 135 129 132 125 118 121 115 111 107 98 94 94 111 85 75 86 82 76 73 73 75 75 72 73 73
137 135 140 141 139 140 143 147 143 137 138 136 136 139 129 125 128 128 128 110 117 115 109 99 97 94 95 84 81 86 77 73 64 65 68 67 65 65